Regional Weather Roundup
Issued by NWS

Home | Current Version | Previous Version | Text Only | Print | Product List | Glossary Off
Versions: 1 2 3 4 5 6 7 8 9 10 11 12 13 14 15 16 17 18 19 20 21 22 23 24 25 26 27 28 29 30 31 32 33 34 35 36 37 38 39 40 41 42 43 44 45 46 47 48 49 50

000
ASUS45 KPSR 230100
RWRAZ

ARIZONA HOURLY REGIONAL WEATHER ROUNDUP
NATIONAL WEATHER SERVICE PHOENIX AZ
600 PM MST FRI MAY 22 2015

NOTE: FAIR INDICATES FEW OR NO CLOUDS BELOW 12,000 FEET WITH NO
SIGNIFICANT WEATHER AND/OR OBSTRUCTIONS TO VISIBILITY.

AZZ001>003-036-230200-
NORTHWEST ARIZONA

CITY           SKY/WX    TMP DP  RH WIND       PRES   REMARKS
KINGMAN        PTSUNNY   62  36  37 S10G20    29.92S
$$

AZZ004>008-015-016-018-230200-
NORTH CENTRAL ARIZONA

CITY           SKY/WX    TMP DP  RH WIND       PRES   REMARKS
GRAND CANYON   CLOUDY    40  37  89 NW6       30.02
WILLIAMS       PTSUNNY   45  34  65 VRB3      30.07F
PRESCOTT       FAIR      58  28  32 S12       29.96S
FLAGSTAFF      NOT AVBL
PAGE           CLOUDY    62  34  35 SW9G18    29.89S
$$

AZZ009>014-017-230200-
NORTHEAST ARIZONA

CITY           SKY/WX    TMP DP  RH WIND       PRES   REMARKS
WINSLOW        NOT AVBL
SAINT JOHNS    MOSUNNY   66  17  15 SW26G36   29.91R
WINDOW ROCK    PTSUNNY   62  14  15 SW21G29   29.95S
$$

AZZ023-230200-
GREATER PHOENIX AREA

CITY           SKY/WX    TMP DP  RH WIND       PRES   REMARKS
PHOENIX        MOSUNNY   78  34  20 W13G26    29.84S
GLENDALE       MOSUNNY   77  34  20 SW16      29.87S
DEER VALLEY    MOSUNNY   75  33  21 W18       29.86S
SCOTTSDALE     MOSUNNY   76  33  21 W13G22    29.88S
MESA-FALCON    MOSUNNY   75  36  23 W12G25    29.85S
$$

AZZ027-028-230200-
SOUTHWEST MARICOPA COUNTY AND PINAL COUNTY

CITY           SKY/WX    TMP DP  RH WIND       PRES   REMARKS
CASA GRANDE    PTSUNNY   77  39  25 W15G22    29.85S
$$

AZZ503-504-507>509-230200-
SOUTHEAST ARIZONA

CITY           SKY/WX    TMP DP  RH WIND       PRES   REMARKS
TUCSON         SUNNY     77  22  13 W20G29    29.92S
RYAN FIELD       N/A     77  36  22 SW14      29.91R
NOGALES        SUNNY     71  29  21 SW21      29.97R
SAFFORD        SUNNY     81  19  10 W20G28    29.82R
$$

AZZ020-021-025-026-031-230200-
SOUTHWEST ARIZONA

CITY           SKY/WX    TMP DP  RH WIND       PRES   REMARKS
YUMA           SUNNY     77  40  26 W16G24    29.88S
$$

CAZ031-033-041-043-047-048-061-230200-
SOUTHERN CALIFORNIA

CITY           SKY/WX    TMP DP  RH WIND       PRES   REMARKS
DOWNTOWN L.A.  CLOUDY    66  50  56 VRB5      30.01S
L.A. AIRPORT   PTSUNNY   62  55  77 SW13      30.03R
SAN DIEGO      PTSUNNY   65  51  60 NW8       30.07R
BURBANK        CLOUDY    63  47  55 S6        30.00S
ONTARIO        CLOUDY    60  48  64 W6        30.02S
RIVERSIDE      CLOUDY    62  48  60 W5        30.02S
PALM SPRINGS   MOSUNNY   75  43  31 NW20G30   29.88S
EL CENTRO NAS  MOSUNNY   75  42  30 W23       29.92S
IMPERIAL       SUNNY     74  44  34 W22G33    29.89R
BLYTHE         MOSUNNY   78  42  27 SW21G29   29.84R
$$

NVZ020-UTZ003-230200-
SOUTHERN NEVADA-UTAH

CITY           SKY/WX    TMP DP  RH WIND       PRES   REMARKS
LAS VEGAS      NOT AVBL
SALT LAKE CITY CLOUDY    62  39  42 E7        29.86S
$$

NMZ009-TXZ055-230200-
NEW MEXICO-WEST TEXAS

CITY           SKY/WX    TMP DP  RH WIND       PRES   REMARKS
ALBUQUERQUE    MOSUNNY   73  34  23 S28G38    29.90F
EL PASO        PTSUNNY   88   5   4 SW20      29.84F
$$


........................KEY........................
SKY/WX - SKY CONDITION/WEATHER
TMP    - TEMPERATURE IN FAHRENHEIT
DP     - DEW POINT IN FAHRENHEIT
RH     - RELATIVE HUMIDITY IN PERCENT
WIND   - DIRECTION AND SPEED IN MILES PER HOUR (MPH)
VRB    - VARIABLE WIND DIRECTION
PRES   - MEAN SEA LEVEL PRESSURE IN INCHES OF MERCURY
         F - FALLING PRESSURE   R - RISING PRESSURE
         S - STEADY PRESSURE
VSB    - VISIBILITY IN MILES
HX     - HEAT INDEX IN FAHRENHEIT
WCI    - WIND CHILL INDEX IN FAHRENHEIT
TC     - TEMPERATURE IN CELSIUS WHICH IS ALSO KNOWN AS
         TEMPERATURE IN CENTIGRADE
AFB    - AIR FORCE BASE
         LUKE AFB IS LUKE AIR FORCE BASE
         DAVIS-MONTHAN IS DAVIS-MONTHAN AIR FORCE BASE
NAS    - NAVAL AIR STATION
         EL CENTRO NAS IS EL CENTRO NAVAL AIR STATION
N/A    - NOT AVAILABLE




USA.gov is the U.S. government's official web portal to all federal, state and local government web resources and services.